06.05.2024;17:00;9
06.05.2024;16:00;7
06.05.2024;15:00;5
06.05.2024;14:00;6
06.05.2024;13:00;5
06.05.2024;12:00;7
06.05.2024;11:00;13
06.05.2024;10:00;15
06.05.2024;09:00;21
06.05.2024;08:00;24
06.05.2024;07:00;28
06.05.2024;06:00;31
06.05.2024;05:00;22
06.05.2024;04:00;16
06.05.2024;03:00;15
06.05.2024;02:00;19
06.05.2024;01:00;32
06.05.2024;00:00;28
05.05.2024;23:00;26
05.05.2024;22:00;17
05.05.2024;21:00;10
05.05.2024;20:00;5
05.05.2024;19:00;3
05.05.2024;18:00;3
05.05.2024;17:00;2
05.05.2024;16:00;2
05.05.2024;15:00;2
05.05.2024;14:00;3
05.05.2024;13:00;3
05.05.2024;12:00;3
05.05.2024;11:00;4
05.05.2024;10:00;5
05.05.2024;09:00;10
05.05.2024;08:00;8
05.05.2024;07:00;10
05.05.2024;06:00;14
05.05.2024;05:00;16
05.05.2024;04:00;24
05.05.2024;03:00;24
05.05.2024;02:00;23
05.05.2024;01:00;17
05.05.2024;00:00;18
04.05.2024;23:00;23
04.05.2024;22:00;17
04.05.2024;21:00;13
04.05.2024;20:00;7
04.05.2024;19:00;5
04.05.2024;18:00;5
